Flag for Morocco Weather past 2 weeks in Rabat, Morocco

Now
70 °F

Partly cloudy.


Feels Like: 70 °F
Forecast: 68 / 78 °F
Wind: 5 mph from North

Location: Rabat-Sale

Current Time: Aug 2, 2014 at 12:26:14 AM

Latest Report: Aug 2, 2014 at 12:00 AM


Visibility: N/A

Pressure: 30.04 "Hg

Humidity: 69%

Dew point: 59 °F

Location of RabatLocation

Historic Weather in Rabat — Graph

°F

Rabat temperature yesterday

Maximum temperature yesterday: 77 °F (at 12:00 PM)
Minimum temperature yesterday: 70 °F (at 5:30 AM)
Average temperature yesterday: 73 °F

Past Weeks' High & Low Weather Summary

 TemperatureHumidityPressure
High81 °F (Jul 22, 3:30 PM)94% (Jul 19, 1:30 AM)30.12 "Hg (Jul 19, 1:30 AM)
Low59 °F (Jul 19, 1:30 AM)51% (Jul 19, 2:30 PM)29.89 "Hg (Jul 24, 4:00 AM)
Average71 °F71%30.00 "Hg
* Reported Jul 17 11:00 PM — Aug 1 11:00 PM, Rabat, Weather by CustomWeather, © 2014

Note: Actual official high and low records may vary slightly from our data, if they occured in-between our weather recording intervals... More about our weather records

Advertising

Rabat weather history for previous 24 hours

 ConditionsComfort  
Time TempWeatherWind HumidityBarometerVisibility
11:00 PM
Aug 1
70 °FPartly cloudy.7 mph69%30.04 "HgN/A
10:30 PM72 °FPartly cloudy.7 mph69%30.04 "HgN/A
10:00 PM70 °FPartly cloudy.7 mph73%30.04 "HgN/A
9:30 PM72 °FPartly cloudy.9 mph73%30.04 "HgN/A
9:00 PM72 °FPartly cloudy.5 mph73%30.04 "HgN/A
8:30 PM72 °FPartly cloudy.6 mph73%30.04 "HgN/A
8:00 PM72 °FPassing clouds.6 mph73%30.04 "HgN/A
7:30 PM72 °FPassing clouds.6 mph69%30.01 "HgN/A
7:00 PM72 °FPartly sunny.9 mph73%30.01 "HgN/A
6:30 PM72 °FPartly sunny.9 mph73%30.01 "HgN/A
6:00 PM73 °FPartly sunny.9 mph69%30.01 "HgN/A
5:30 PM75 °FPartly sunny.9 mph57%30.01 "HgN/A
5:00 PM75 °FPartly sunny.9 mph57%30.01 "HgN/A
4:30 PM77 °FPartly sunny.8 mph51%30.01 "Hg6 mi
4:00 PM77 °FPartly sunny.10 mph54%30.01 "Hg6 mi
3:30 PM77 °FPartly sunny.10 mph57%30.04 "HgN/A
3:00 PM77 °FPartly sunny.9 mph54%30.04 "HgN/A
2:30 PM75 °FPartly sunny.10 mph57%30.04 "HgN/A
2:00 PM77 °FPartly sunny.12 mph54%30.04 "HgN/A
1:30 PM75 °FPartly sunny.9 mph54%30.04 "HgN/A
1:00 PM77 °FPartly sunny.10 mph54%30.04 "HgN/A
12:30 PM77 °FPartly sunny.10 mph54%30.04 "HgN/A
12:00 PM77 °FPartly sunny.7 mph51%30.04 "HgN/A
11:30 AM75 °FPartly sunny.8 mph54%30.04 "Hg5 mi
11:00 AM73 °FPartly sunny.9 mph57%30.07 "Hg5 mi
10:30 AM73 °FPartly sunny.7 mph57%30.07 "Hg5 mi
9:30 AM73 °FPartly sunny.6 mph53%30.07 "Hg5 mi
9:00 AM73 °FPartly sunny.7 mph53%30.07 "Hg5 mi
8:30 AM72 °FPartly sunny.5 mph57%30.04 "Hg5 mi
8:00 AM72 °FPartly sunny.6 mph57%30.07 "Hg5 mi
7:30 AM72 °FPartly sunny.7 mph57%30.04 "Hg5 mi
7:00 AM72 °FPartly sunny.5 mph57%30.04 "Hg5 mi
6:30 AM72 °FPartly sunny.7 mph57%30.04 "Hg4 mi
6:00 AM70 °FPartly sunny.6 mph64%30.04 "Hg4 mi
5:30 AM70 °FPassing clouds.6 mph64%30.04 "Hg4 mi
5:00 AM72 °FPassing clouds.5 mph61%30.04 "Hg4 mi
4:30 AM72 °FPassing clouds.6 mph61%30.04 "Hg4 mi
3:00 AM72 °FPassing clouds.5 mph61%30.04 "Hg4 mi
2:30 AM72 °FPassing clouds.3 mph61%30.04 "Hg4 mi
2:00 AM72 °FPassing clouds.6 mph65%30.04 "Hg4 mi
1:30 AM72 °FPassing clouds.6 mph65%30.04 "Hg4 mi
1:00 AM72 °FPassing clouds.6 mph65%30.04 "Hg4 mi
12:30 AM72 °FPassing clouds.6 mph65%30.07 "Hg4 mi
12:00 AM72 °FPassing clouds.3 mph69%30.07 "Hg5 mi
Weather by CustomWeather, © 2014

See weather overviewHow to use our weather pages